Weather History for Pittsburg, KS

Change the Weather History Date:

Wednesday, May 14, 2014

  Actual Average (KJLN) Record (KJLN)
Temperature  
Mean Temperature 52 °F 66 °F  
Max Temperature 58 °F 77 °F 92 °F (1947)
Min Temperature 46 °F 56 °F 41 °F (1959)
Degree Days  
Heating Degree Days 13 2  
Month to date heating degree days 43  
Since 1 July heating degree days 4046  
Cooling Degree Days 0 4  
Month to date cooling degree days 40  
Year to date cooling degree days 94  
Growing Degree Days 2 (Base 50)    
Moisture  
Dew Point 41 °F    
Average Humidity 67    
Maximum Humidity 100    
Minimum Humidity 41    
Precipitation  
Precipitation 0.00 in 0.18 in 2.17 in (2010)
Month to date precipitation 2.67  
Year to date precipitation 14.91  
Sea Level Pressure  
Sea Level Pressure 30.20 in    
Wind  
Wind Speed 3 mph (NNE)    
Max Wind Speed 13 mph    
Max Gust Speed 18 mph    
Visibility 10 miles    
Events      
T = Trace of Precipitation, MM = Missing Value Source: NWS Daily Summary

Daily Weather History Graph

Daily Weather History Graph

Search for Another Location

Airport:

Trip Planner

Search our weather history database for the weather conditions in past years. The results will help you decide how hot, cold, wet, or windy it might be!

Date:

Astronomy

May. 14, 2014 Rise Set
Actual Time 6:10 AM CDT 8:20 PM CDT
Civil Twilight 5:41 AM CDT 8:49 PM CDT
Nautical Twilight 5:05 AM CDT 9:25 PM CDT
Astronomical Twilight 4:27 AM CDT 10:04 PM CDT
Moon 8:27 PM CDT (5/14) 6:08 AM CDT (5/14)
Length of Visible Light 15h 08m
Length of Day
14h 09m
Full, 100% of the Moon is Illuminated
May 14
Full
May 14
Full
May 21
Last Quarter
May 28
New
Jun 5
First Quarter

Hourly Weather History & Observations

Time (CDT) Temp. Dew Point Humidity Pressure Visibility Wind Dir Wind Speed Gust Speed Precip Events Conditions
12:15 AM 50.9 °F - N/A% 30.25 in 10.0 mi Calm Calm - N/A   Unknown
12:35 AM 50.9 °F - N/A% 30.24 in 10.0 mi Calm Calm - N/A   Unknown
1:15 AM 50.9 °F - N/A% 30.24 in 10.0 mi Calm Calm - N/A   Unknown
1:35 AM 50.9 °F - N/A% 30.24 in 10.0 mi Calm Calm - N/A   Unknown
1:55 AM 50.9 °F 50.9 °F 100% 30.23 in 10.0 mi Calm Calm - N/A   Unknown
2:15 AM 50.9 °F 50.9 °F 100% 30.22 in 10.0 mi Calm Calm - N/A   Unknown
2:35 AM 50.9 °F 50.9 °F 100% 30.22 in 10.0 mi Calm Calm - N/A   Unknown
2:55 AM 50.9 °F 50.9 °F 100% 30.22 in 10.0 mi NNE 5.8 mph - N/A   Unknown
3:15 AM 50.9 °F 49.3 °F 94% 30.22 in 10.0 mi NNE 4.6 mph - N/A   Unknown
3:35 AM 51.4 °F 47.3 °F 86% 30.22 in 10.0 mi NNE 6.9 mph - N/A   Unknown
3:55 AM 51.8 °F 46.0 °F 81% 30.21 in 10.0 mi NNE 5.8 mph - N/A   Unknown
4:15 AM 51.8 °F 45.5 °F 79% 30.20 in 10.0 mi NNE 4.6 mph - N/A   Unknown
4:35 AM 51.1 °F 44.4 °F 78% 30.20 in 10.0 mi NNE 5.8 mph - N/A   Unknown
4:55 AM 50.9 °F 43.3 °F 75% 30.20 in 10.0 mi NNE 4.6 mph - N/A   Unknown
5:15 AM 50.9 °F 43.0 °F 74% 30.20 in 10.0 mi NNE 5.8 mph - N/A   Unknown
5:35 AM 50.9 °F 42.6 °F 73% 30.21 in 10.0 mi North 4.6 mph - N/A   Unknown
6:15 AM 50.9 °F 42.6 °F 73% 30.23 in 10.0 mi Calm Calm - N/A   Unknown
6:35 AM 50.9 °F 43.3 °F 75% 30.23 in 10.0 mi North 3.5 mph - N/A   Unknown
6:55 AM 50.9 °F 43.2 °F 75% 30.24 in 10.0 mi Calm Calm - N/A   Unknown
7:15 AM 50.9 °F 43.9 °F 77% 30.25 in 10.0 mi Calm Calm - N/A   Unknown
7:35 AM 50.9 °F 45.1 °F 81% 30.25 in 10.0 mi Calm Calm - N/A   Unknown
7:55 AM 50.9 °F 44.8 °F 80% 30.24 in 10.0 mi Calm Calm - N/A   Unknown
8:15 AM 50.9 °F 44.8 °F 80% 30.23 in 10.0 mi North 3.5 mph - N/A   Unknown
8:35 AM 50.9 °F 44.6 °F 79% 30.23 in 10.0 mi North 4.6 mph - N/A   Unknown
8:55 AM 51.3 °F 44.1 °F 76% 30.25 in 10.0 mi NNW 3.5 mph - N/A   Unknown
9:15 AM 52.0 °F 44.2 °F 75% 30.24 in 10.0 mi NNE 5.8 mph - N/A   Unknown
9:35 AM 53.1 °F 44.6 °F 73% 30.24 in 10.0 mi NNE 5.8 mph - N/A   Unknown
9:55 AM 53.2 °F 44.1 °F 71% 30.23 in 10.0 mi NNE 5.8 mph - N/A   Unknown
10:35 AM 55.8 °F 44.6 °F 66% 30.24 in 10.0 mi NE 4.6 mph - N/A   Unknown
10:55 AM 55.8 °F 44.4 °F 66% 30.24 in 10.0 mi NNE 4.6 mph - N/A   Unknown
11:15 AM 55.8 °F 44.1 °F 65% 30.24 in 10.0 mi NE 5.8 mph - N/A   Unknown
11:55 AM 55.8 °F 43.2 °F 63% 30.24 in 10.0 mi NE 3.5 mph - N/A   Unknown
12:15 PM 55.8 °F 42.8 °F 62% 30.22 in 10.0 mi NNE 6.9 mph - N/A   Unknown
12:35 PM 55.8 °F 42.4 °F 61% 30.22 in 10.0 mi NNE 4.6 mph - N/A   Unknown
12:55 PM 55.8 °F 41.5 °F 59% 30.22 in 10.0 mi NNE 5.8 mph - N/A   Unknown
1:15 PM 55.9 °F 40.8 °F 57% 30.21 in 10.0 mi NNE 10.4 mph - N/A   Unknown
1:35 PM 55.9 °F 38.1 °F 51% 30.20 in 10.0 mi NNE 12.7 mph 16.1 mph N/A   Unknown
1:55 PM 57.2 °F 37.6 °F 48% 30.21 in 10.0 mi North 8.1 mph - N/A   Unknown
2:15 PM 56.3 °F 36.1 °F 47% 30.21 in 10.0 mi NNW 11.5 mph 17.3 mph N/A   Unknown
2:35 PM 55.9 °F 35.6 °F 46% 30.21 in 10.0 mi North 10.4 mph 18.4 mph N/A   Unknown
3:15 PM 56.3 °F 35.1 °F 45% 30.20 in 10.0 mi North 8.1 mph - N/A   Unknown
3:35 PM 56.1 °F 34.2 °F 44% 30.20 in 10.0 mi North 6.9 mph - N/A   Unknown
3:55 PM 55.8 °F 33.4 °F 43% 30.19 in 10.0 mi North 8.1 mph - N/A   Unknown
4:15 PM 55.8 °F 33.1 °F 42% 30.19 in 10.0 mi North 8.1 mph - N/A   Unknown
4:35 PM 55.8 °F 32.0 °F 41% 30.19 in 10.0 mi North 5.8 mph - N/A   Unknown
4:55 PM 55.8 °F 32.2 °F 41% 30.18 in 10.0 mi North 6.9 mph - N/A   Unknown
5:15 PM 55.8 °F 32.7 °F 42% 30.18 in 10.0 mi NNE 5.8 mph - N/A   Unknown
5:35 PM 55.8 °F 32.9 °F 42% 30.18 in 10.0 mi NNE 3.5 mph - N/A   Unknown
5:55 PM 55.8 °F 34.2 °F 44% - 10.0 mi NE 3.5 mph - N/A   Unknown
6:15 PM 56.3 °F 34.7 °F 44% 30.16 in 10.0 mi Calm Calm - N/A   Unknown
6:35 PM 58.1 °F 35.2 °F 42% 30.16 in 10.0 mi Calm Calm - N/A   Unknown
6:55 PM 58.3 °F 34.3 °F 41% 30.16 in 10.0 mi Calm Calm - N/A   Unknown
7:15 PM 57.7 °F 34.9 °F 42% 30.16 in 10.0 mi Calm Calm - N/A   Unknown
7:35 PM 56.3 °F 35.6 °F 46% 30.16 in 10.0 mi Calm Calm - N/A   Unknown
7:55 PM 55.2 °F 42.8 °F 63% 30.16 in 10.0 mi Calm Calm - N/A   Unknown
8:15 PM 52.7 °F 42.4 °F 68% 30.16 in 10.0 mi Calm Calm - N/A   Unknown
8:35 PM 51.4 °F 41.5 °F 69% 30.16 in 10.0 mi SSW 3.5 mph - N/A   Unknown
8:55 PM 50.2 °F 43.0 °F 76% 30.16 in 10.0 mi Calm Calm - N/A   Unknown
9:15 PM 48.2 °F 43.2 °F 83% 30.16 in 10.0 mi SSW 3.5 mph - N/A   Unknown
9:35 PM 47.8 °F 41.7 °F 79% 30.16 in 10.0 mi Calm Calm - N/A   Unknown
9:55 PM 48.2 °F 41.2 °F 77% 30.17 in 10.0 mi Calm Calm - N/A   Unknown
10:15 PM 47.1 °F 40.6 °F 78% 30.17 in 10.0 mi Calm Calm - N/A   Unknown
10:35 PM 46.4 °F 41.7 °F 84% 30.17 in 10.0 mi Calm Calm - N/A   Unknown
10:55 PM 48.2 °F 42.4 °F 80% 30.17 in 10.0 mi Calm Calm - N/A   Unknown
11:15 PM 49.6 °F 43.0 °F 78% 30.16 in 10.0 mi South 3.5 mph - N/A   Unknown
11:35 PM 50.9 °F 43.9 °F 77% 30.16 in 10.0 mi SSW 5.8 mph - N/A   Unknown
11:55 PM 50.9 °F 43.3 °F 75% 30.16 in 10.0 mi South 3.5 mph - N/A   Unknown